User: anonymous   Login
Location: Melbourne
(37.8170°S, 144.9670°E)
Time: 03:35:00
(UTC+11:00)
Language:

ERBS - Orbit

View from above orbital plane
View from above orbital plane
View from above satellite
View from above satellite

Ground track
Ground track

The orbit data is extracted from the following two-line orbital elements,

1 15354U 84108B   17087.88409232 +.00005241 +00000-0 +12566-3 0  9993
2 15354 057.0072 123.9982 0008307 341.2627 018.8120 15.43093398785531
Epoch (UTC): 28 March 2017 21:13:05
Eccentricity: 0.0008307
inclination: 57.0072°
perigee height: 431 km
apogee height: 442 km
right ascension of ascending node: 123.9982°
argument of perigee: 341.2627°
revolutions per day: 15.43093398
mean anomaly at epoch: 18.8120°
orbit number at epoch: 78553

The dashed part of the orbit path shows where the satellite is in the earth's shadow,  

DLR